| time (UTC) | temp F | wind direction | speed knots | gust knots | rain 1hr in | rain 24hr in | rain mn in | humidity % | barometer mb |
| 20260507040407 | 55 | 354 | 0.0 | 0.0 | 0.00 | 0.00 | 0.00 | 100 | 1020.9 |
| 20260507040134 | 55 | 359 | 0.0 | 0.9 | 0.00 | 0.00 | 0.00 | 100 | 1020.8 |
| 20260507035407 | 56 | 354 | 0.0 | 0.9 | 0.00 | 0.00 | 0.00 | 100 | 1020.8 |
| 20260507034906 | 56 | 359 | 0.0 | 0.0 | 0.00 | 0.00 | 0.00 | 100 | 1020.7 |
| 20260507034407 | 56 | 359 | 0.0 | 0.0 | 0.00 | 0.00 | 0.00 | 100 | 1020.7 |
| 20260507033907 | 56 | 354 | 0.0 | 0.9 | 0.00 | 0.00 | 0.00 | 100 | 1020.7 |
| 20260507033407 | 56 | 354 | 0.0 | 0.9 | 0.00 | 0.00 | 0.00 | 100 | 1020.6 |
| 20260507032907 | 56 | 359 | 0.0 | 1.7 | 0.00 | 0.00 | 0.00 | 100 | 1020.6 |
| 20260507032406 | 56 | 354 | 0.0 | 1.7 | 0.00 | 0.00 | 0.00 | 100 | 1020.6 |
| 20260507031905 | 56 | 32 | 0.0 | 0.0 | 0.00 | 0.00 | 0.00 | 100 | 1020.5 |
| 20260507031404 | 56 | 33 | 0.0 | 0.0 | 0.00 | 0.00 | 0.00 | 100 | 1020.5 |
| 20260507030904 | 56 | 33 | 0.0 | 0.0 | 0.00 | 0.00 | 0.00 | 100 | 1020.5 |
| 20260507030406 | 56 | 33 | 0.0 | 0.0 | 0.00 | 0.00 | 0.00 | 100 | 1020.5 |
| 20260507025903 | 56 | 33 | 0.0 | 0.0 | 0.00 | 0.00 | 0.00 | 100 | 1020.5 |
| 20260507025401 | 57 | 33 | 0.0 | 1.7 | 0.00 | 0.00 | 0.00 | 100 | 1020.5 |
| 20260507024903 | 57 | 34 | 0.0 | 2.6 | 0.00 | 0.00 | 0.00 | 100 | 1020.5 |
| 20260507024404 | 57 | 33 | 0.0 | 2.6 | 0.00 | 0.00 | 0.00 | 100 | 1020.5 |
| 20260507024105 | 57 | 34 | 0.0 | 0.9 | 0.00 | 0.00 | 0.00 | 100 | 1020.4 |
| 20260507023953 | 57 | 33 | 0.0 | 1.7 | 0.00 | 0.00 | 0.00 | 100 | 1020.4 |
| 20260507022904 | 57 | 33 | 0.0 | 0.9 | 0.00 | 0.00 | 0.00 | 100 | 1020.2 |
| 20260507022404 | 57 | 33 | 0.0 | 1.7 | 0.00 | 0.00 | 0.00 | 100 | 1020.3 |
| 20260507021904 | 57 | 33 | 0.0 | 1.7 | 0.00 | 0.00 | 0.00 | 100 | 1020.3 |
| 20260507021404 | 58 | 33 | 0.0 | 0.0 | 0.00 | 0.00 | 0.00 | 100 | 1020.3 |
| 20260507020904 | 58 | 33 | 0.0 | 0.0 | 0.00 | 0.00 | 0.00 | 100 | 1020.3 |
| 20260507020401 | 58 | 33 | 0.0 | 0.9 | 0.00 | 0.00 | 0.00 | 100 | 1020.3 |
| 20260507015900 | 58 | 33 | 0.0 | 0.9 | 0.00 | 0.00 | 0.00 | 100 | 1020.3 |
| 20260507015359 | 58 | 33 | 0.0 | 0.0 | 0.00 | 0.00 | 0.00 | 100 | 1020.3 |
| 20260507014900 | 58 | 33 | 0.0 | 0.0 | 0.00 | 0.00 | 0.00 | 100 | 1020.1 |
| 20260507014400 | 58 | 33 | 0.0 | 1.7 | 0.00 | 0.00 | 0.00 | 100 | 1020.2 |
| 20260507013900 | 58 | 32 | 0.0 | 1.7 | 0.00 | 0.00 | 0.00 | 100 | 1020.2 |
| 20260507013400 | 58 | 33 | 0.0 | 0.9 | 0.00 | 0.00 | 0.00 | 100 | 1020.2 |
| 20260507012859 | 58 | 33 | 0.0 | 0.9 | 0.00 | 0.00 | 0.00 | 100 | 1020.2 |
| 20260507012400 | 58 | 33 | 0.0 | 1.7 | 0.00 | 0.00 | 0.00 | 100 | 1020.2 |
| 20260507011900 | 58 | 33 | 0.0 | 1.7 | 0.00 | 0.00 | 0.00 | 100 | 1020.1 |
| 20260507011400 | 58 | 33 | 0.0 | 1.7 | 0.00 | 0.00 | 0.00 | 100 | 1020.2 |
| 20260507010900 | 58 | 33 | 0.0 | 1.7 | 0.00 | 0.00 | 0.00 | 100 | 1020.2 |
| 20260507010400 | 58 | 33 | 0.0 | 1.7 | 0.00 | 0.00 | 0.00 | 100 | 1020.3 |
| 20260507005900 | 58 | 33 | 0.0 | 1.7 | 0.00 | 0.00 | 0.00 | 100 | 1020.3 |
| 20260507005400 | 58 | 33 | 0.0 | 1.7 | 0.00 | 0.00 | 0.00 | 100 | 1020.3 |
| 20260507004900 | 58 | 33 | 0.0 | 0.9 | 0.00 | 0.00 | 0.00 | 100 | 1020.4 |
| 20260507004400 | 58 | 33 | 0.0 | 1.7 | 0.00 | 0.00 | 0.00 | 100 | 1020.3 |
| 20260507003858 | 58 | 33 | 0.0 | 1.7 | 0.00 | 0.00 | 0.00 | 100 | 1020.3 |
| 20260507003618 | 58 | 33 | 0.0 | 1.7 | 0.00 | 0.00 | 0.00 | 100 | 1020.2 |
| 20260507002859 | 58 | 33 | 0.0 | 1.7 | 0.00 | 0.00 | 0.00 | 100 | 1020.2 |
| 20260507002357 | 58 | 33 | 0.9 | 1.7 | 0.00 | 0.00 | 0.00 | 100 | 1020.3 |
| 20260507001857 | 58 | 32 | 0.9 | 1.7 | 0.00 | 0.00 | 0.00 | 100 | 1020.2 |
| 20260507001615 | 58 | 39 | 0.0 | 1.7 | 0.00 | 0.00 | 0.00 | 100 | 1020.3 |
| 20260507001120 | 58 | 39 | 0.0 | 1.7 | 0.00 | 0.00 | 0.00 | 100 | 1020.2 |
| 20260507000359 | 58 | 39 | 0.0 | 2.6 | 0.00 | 0.00 | 0.00 | 100 | 1020.2 |
| 20260506235859 | 58 | 35 | 0.9 | 2.6 | 0.00 | 0.00 | 0.00 | 100 | 1020.1 |
| 20260506235359 | 58 | 34 | 0.0 | 2.6 | 0.00 | 0.00 | 0.00 | 100 | 1020.2 |
| 20260506235119 | 58 | 68 | 0.9 | 1.7 | 0.00 | 0.00 | 0.00 | 100 | 1020.2 |
| 20260506234400 | 58 | 68 | 0.9 | 1.7 | 0.00 | 0.00 | 0.00 | 100 | 1020.2 |
| 20260506233859 | 58 | 69 | 0.9 | 4.3 | 0.00 | 0.00 | 0.00 | 100 | 1020.2 |
| 20260506233359 | 58 | 68 | 1.7 | 4.3 | 0.00 | 0.00 | 0.00 | 100 | 1020.2 |
| 20260506232900 | 59 | 77 | 0.9 | 4.3 | 0.00 | 0.00 | 0.00 | 3 | 1020.2 |
| 20260506232359 | 58 | 83 | 0.0 | 0.9 | 0.00 | 0.00 | 0.00 | 16 | 1020.3 |
| 20260506231858 | 58 | 83 | 0.0 | 0.0 | 0.00 | 0.00 | 0.00 | 16 | 1020.4 |
| 20260506231357 | 58 | 83 | 0.0 | 0.0 | 0.00 | 0.00 | 0.00 | 19 | 1020.3 |
| 20260506230857 | 58 | 83 | 0.0 | 0.0 | 0.00 | 0.00 | 0.00 | 17 | 1020.3 |
| 20260506230357 | 58 | 83 | 0.0 | 0.0 | 0.00 | 0.00 | 0.00 | 20 | 1020.3 |
| 20260506225857 | 58 | 83 | 0.0 | 0.0 | 0.00 | 0.00 | 0.00 | 20 | 1020.3 |
| 20260506225357 | 58 | 83 | 0.0 | 0.0 | 0.00 | 0.00 | 0.00 | 19 | 1020.3 |
| 20260506224855 | 58 | 82 | 0.0 | 0.0 | 0.00 | 0.00 | 0.00 | 15 | 1020.3 |
| 20260506224356 | 58 | 83 | 0.0 | 0.0 | 0.00 | 0.00 | 0.00 | 14 | 1020.4 |
| 20260506223855 | 58 | 84 | 0.0 | 0.0 | 0.00 | 0.00 | 0.00 | 15 | 1020.4 |
| 20260506223356 | 58 | 81 | 0.0 | 0.0 | 0.00 | 0.00 | 0.00 | 15 | 1020.5 |
| 20260506222855 | 58 | 82 | 0.0 | 0.0 | 0.00 | 0.00 | 0.00 | 8 | 1020.4 |
| 20260506222355 | 58 | 81 | 0.0 | 0.0 | 0.00 | 0.00 | 0.00 | 11 | 1020.4 |
| 20260506222113 | 58 | 83 | 0.0 | 0.0 | 0.00 | 0.00 | 0.00 | 11 | 1020.4 |
| 20260506221355 | 58 | 83 | 0.0 | 0.0 | 0.00 | 0.00 | 0.00 | 11 | 1020.4 |
| 20260506220854 | 58 | 83 | 0.0 | 0.0 | 0.00 | 0.00 | 0.00 | 10 | 1020.4 |
| 20260506220355 | 58 | 83 | 0.0 | 0.0 | 0.00 | 0.00 | 0.00 | 12 | 1020.4 |
| 20260506215855 | 58 | 83 | 0.0 | 0.9 | 0.00 | 0.00 | 0.00 | 10 | 1020.5 |
| 20260506215617 | 58 | 83 | 0.0 | 0.9 | 0.00 | 0.00 | 0.00 | 10 | 1020.5 |
| 20260506214854 | 58 | 83 | 0.0 | 0.9 | 0.00 | 0.00 | 0.00 | 9 | 1020.5 |
| 20260506214351 | 58 | 83 | 0.0 | 0.9 | 0.00 | 0.00 | 0.00 | 5 | 1020.5 |
| 20260506213851 | 58 | 83 | 0.0 | 1.7 | 0.00 | 0.00 | 0.00 | 5 | 1020.5 |
| 20260506213351 | 57 | 83 | 0.0 | 1.7 | 0.00 | 0.00 | 0.00 | 4 | 1020.5 |
| 20260506212848 | 57 | 87 | 0.0 | 1.7 | 0.00 | 0.00 | 0.00 | 100 | 1020.5 |
| 20260506212348 | 57 | 87 | 0.0 | 1.7 | 0.00 | 0.00 | 0.00 | 6 | 1020.6 |
| 20260506211849 | 57 | 87 | 0.0 | 0.9 | 0.00 | 0.00 | 0.00 | 3 | 1020.5 |
| 20260506211349 | 57 | 85 | 0.0 | 1.7 | 0.00 | 0.00 | 0.00 | 3 | 1020.6 |
| 20260506210847 | 57 | 87 | 0.0 | 1.7 | 0.00 | 0.00 | 0.00 | 100 | 1020.5 |
| 20260506210348 | 57 | 86 | 0.0 | 0.9 | 0.00 | 0.00 | 0.00 | 100 | 1020.6 |
| 20260506205848 | 57 | 87 | 0.0 | 0.9 | 0.00 | 0.00 | 0.00 | 100 | 1020.7 |
| 20260506205348 | 57 | 86 | 0.0 | 0.9 | 0.00 | 0.00 | 0.00 | 100 | 1020.6 |
| 20260506204847 | 57 | 87 | 0.0 | 0.9 | 0.00 | 0.00 | 0.00 | 100 | 1020.6 |
| 20260506204608 | 57 | 87 | 0.0 | 0.9 | 0.00 | 0.00 | 0.00 | 100 | 1020.6 |
| 20260506203847 | 57 | 87 | 0.0 | 0.9 | 0.00 | 0.00 | 0.00 | 1 | 1020.6 |
| 20260506203347 | 57 | 86 | 0.0 | 0.9 | 0.00 | 0.00 | 0.00 | 100 | 1020.5 |
| 20260506202847 | 57 | 87 | 0.0 | 0.9 | 0.00 | 0.00 | 0.00 | 100 | 1020.5 |
| 20260506202346 | 57 | 88 | 0.0 | 0.9 | 0.00 | 0.00 | 0.00 | 100 | 1020.3 |
| 20260506202109 | 56 | 86 | 0.0 | 0.9 | 0.00 | 0.00 | 0.00 | 100 | 1020.4 |
| 20260506201346 | 56 | 85 | 0.0 | 0.9 | 0.00 | 0.00 | 0.00 | 100 | 1020.4 |
| 20260506200845 | 56 | 87 | 0.0 | 0.9 | 0.00 | 0.00 | 0.00 | 100 | 1020.3 |
| 20260506200346 | 56 | 86 | 0.0 | 0.9 | 0.00 | 0.00 | 0.00 | 100 | 1020.3 |
| 20260506195846 | 56 | 87 | 0.0 | 1.7 | 0.00 | 0.00 | 0.00 | 100 | 1020.3 |
| 20260506195346 | 56 | 85 | 0.0 | 1.7 | 0.00 | 0.00 | 0.00 | 100 | 1020.3 |
| 20260506195117 | 56 | 86 | 0.0 | 1.7 | 0.00 | 0.00 | 0.00 | 100 | 1020.4 |
| 20260506194345 | 56 | 87 | 0.0 | 1.7 | 0.00 | 0.00 | 0.00 | 100 | 1020.3 |
| 20260506193845 | 56 | 87 | 0.0 | 0.9 | 0.00 | 0.00 | 0.00 | 100 | 1020.4 |
| 20260506193346 | 56 | 85 | 0.0 | 1.7 | 0.00 | 0.00 | 0.00 | 100 | 1020.3 |
| 20260506192846 | 56 | 87 | 0.0 | 1.7 | 0.00 | 0.00 | 0.00 | 100 | 1020.3 |
| 20260506192346 | 56 | 85 | 0.0 | 0.9 | 0.00 | 0.00 | 0.00 | 100 | 1020.2 |
| 20260506191846 | 56 | 89 | 0.0 | 1.7 | 0.00 | 0.00 | 0.00 | 100 | 1020.2 |
| 20260506191346 | 56 | 80 | 0.0 | 1.7 | 0.00 | 0.00 | 0.00 | 100 | 1020.3 |
| 20260506190846 | 55 | 80 | 0.0 | 1.7 | 0.00 | 0.00 | 0.00 | 100 | 1020.2 |
| 20260506190825 | 55 | 78 | 0.0 | 0.9 | 0.00 | 0.00 | 0.00 | 100 | 1020.2 |
| 20260506185848 | 55 | 79 | 0.0 | 0.9 | 0.00 | 0.00 | 0.00 | 100 | 1020.1 |
| 20260506185348 | 55 | 81 | 0.0 | 0.9 | 0.00 | 0.00 | 0.00 | 100 | 1020.2 |
| 20260506184845 | 55 | 81 | 0.0 | 1.7 | 0.00 | 0.00 | 0.00 | 100 | 1020.1 |
| 20260506184345 | 55 | 79 | 0.0 | 1.7 | 0.00 | 0.00 | 0.00 | 100 | 1020.1 |
| 20260506183845 | 55 | 80 | 0.0 | 1.7 | 0.00 | 0.00 | 0.00 | 100 | 1020.1 |
| 20260506183344 | 55 | 81 | 0.0 | 1.7 | 0.00 | 0.00 | 0.00 | 100 | 1020.1 |
| 20260506182843 | 55 | 59 | 0.0 | 0.9 | 0.00 | 0.00 | 0.00 | 100 | 1020.0 |
| 20260506182344 | 55 | 60 | 0.0 | 2.6 | 0.00 | 0.00 | 0.00 | 100 | 1020.1 |
| 20260506181844 | 55 | 88 | 0.0 | 2.6 | 0.00 | 0.00 | 0.00 | 100 | 1020.1 |
| 20260506181344 | 55 | 90 | 0.0 | 0.9 | 0.00 | 0.00 | 0.00 | 100 | 1020.1 |
| 20260506180844 | 55 | 93 | 0.0 | 0.9 | 0.00 | 0.00 | 0.00 | 100 | 1020.0 |
| 20260506180344 | 55 | 283 | 0.0 | 0.9 | 0.00 | 0.00 | 0.00 | 100 | 1019.9 |
| 20260506175843 | 55 | 121 | 0.0 | 0.9 | 0.00 | 0.00 | 0.00 | 100 | 1019.9 |
| 20260506175344 | 55 | 203 | 0.0 | 1.7 | 0.00 | 0.00 | 0.00 | 100 | 1019.9 |
| 20260506174844 | 55 | 204 | 0.0 | 1.7 | 0.00 | 0.00 | 0.00 | 100 | 1019.9 |
| 20260506174344 | 55 | 36 | 0.0 | 0.9 | 0.00 | 0.00 | 0.00 | 100 | 1019.9 |
| 20260506173844 | 55 | 35 | 0.0 | 1.7 | 0.00 | 0.00 | 0.00 | 100 | 1020.0 |
| 20260506173344 | 55 | 34 | 0.0 | 1.7 | 0.00 | 0.00 | 0.00 | 100 | 1019.8 |
| 20260506172844 | 54 | 31 | 0.0 | 0.9 | 0.00 | 0.00 | 0.00 | 100 | 1019.7 |
| 20260506172345 | 54 | 24 | 0.0 | 1.7 | 0.00 | 0.00 | 0.00 | 100 | 1019.5 |
| 20260506171844 | 54 | 24 | 0.0 | 2.6 | 0.00 | 0.00 | 0.00 | 100 | 1019.5 |
| 20260506171344 | 54 | 37 | 0.0 | 2.6 | 0.00 | 0.00 | 0.00 | 100 | 1019.6 |
| 20260506170841 | 54 | 4 | 0.0 | 2.6 | 0.00 | 0.00 | 0.00 | 100 | 1019.7 |
| 20260506170342 | 54 | 31 | 0.0 | 1.7 | 0.00 | 0.00 | 0.00 | 100 | 1019.7 |
| 20260506165842 | 55 | 4 | 0.0 | 0.9 | 0.00 | 0.00 | 0.00 | 100 | 1019.7 |
| 20260506165342 | 55 | 4 | 0.0 | 1.7 | 0.00 | 0.00 | 0.00 | 100 | 1019.7 |
| 20260506164842 | 55 | 354 | 0.0 | 1.7 | 0.00 | 0.00 | 0.00 | 100 | 1019.8 |
| 20260506164342 | 55 | 4 | 0.0 | 0.9 | 0.00 | 0.00 | 0.00 | 100 | 1019.8 |
| 20260506163842 | 55 | 30 | 0.0 | 0.9 | 0.00 | 0.00 | 0.00 | 100 | 1019.6 |
| 20260506163342 | 54 | 276 | 0.0 | 0.9 | 0.00 | 0.00 | 0.00 | 100 | 1019.7 |
| 20260506162842 | 54 | 60 | 0.0 | 0.9 | 0.00 | 0.00 | 0.00 | 100 | 1019.7 |
| 20260506162342 | 54 | 58 | 0.0 | 0.9 | 0.00 | 0.00 | 0.00 | 100 | 1019.7 |
| 20260506162102 | 54 | 58 | 0.0 | 0.9 | 0.00 | 0.00 | 0.00 | 100 | 1019.7 |
| 20260506161602 | 54 | 58 | 0.0 | 0.9 | 0.00 | 0.00 | 0.00 | 100 | 1019.7 |
| 20260506160842 | 54 | 56 | 0.0 | 0.9 | 0.00 | 0.00 | 0.00 | 100 | 1019.5 |
| 20260506160342 | 54 | 52 | 0.0 | 0.9 | 0.00 | 0.00 | 0.00 | 100 | 1019.4 |
| 20260506155340 | 54 | 46 | 0.0 | 1.7 | 0.00 | 0.00 | 0.00 | 100 | 1019.2 |
| 20260506154839 | 54 | 44 | 0.0 | 1.7 | 0.00 | 0.00 | 0.00 | 100 | 1019.2 |
| 20260506154339 | 54 | 39 | 0.0 | 1.7 | 0.00 | 0.00 | 0.00 | 100 | 1018.9 |
| 20260506153839 | 54 | 62 | 0.0 | 1.7 | 0.00 | 0.00 | 0.00 | 100 | 1018.8 |
| 20260506153337 | 54 | 62 | 0.0 | 1.7 | 0.00 | 0.00 | 0.00 | 100 | 1018.9 |
| 20260506152837 | 54 | 48 | 0.0 | 1.7 | 0.00 | 0.00 | 0.00 | 100 | 1019.0 |
| 20260506152336 | 54 | 45 | 0.0 | 0.9 | 0.00 | 0.00 | 0.00 | 100 | 1019.0 |
| 20260506151837 | 54 | 35 | 0.0 | 2.6 | 0.00 | 0.00 | 0.00 | 100 | 1019.1 |
| 20260506151559 | 54 | 36 | 0.0 | 2.6 | 0.00 | 0.00 | 0.00 | 100 | 1019.1 |
| 20260506150837 | 54 | 57 | 0.0 | 1.7 | 0.00 | 0.00 | 0.00 | 100 | 1019.2 |
| 20260506150337 | 54 | 37 | 0.0 | 0.9 | 0.00 | 0.00 | 0.00 | 100 | 1019.1 |
| 20260506145837 | 54 | 37 | 0.0 | 0.9 | 0.00 | 0.00 | 0.00 | 100 | 1019.2 |
| 20260506145336 | 54 | 318 | 0.0 | 1.7 | 0.00 | 0.00 | 0.00 | 100 | 1019.2 |
| 20260506144836 | 54 | 316 | 0.0 | 1.7 | 0.00 | 0.00 | 0.00 | 100 | 1019.2 |
| 20260506144336 | 54 | 56 | 0.0 | 1.7 | 0.00 | 0.00 | 0.00 | 100 | 1019.3 |
| 20260506143836 | 54 | 359 | 0.0 | 1.7 | 0.00 | 0.00 | 0.00 | 100 | 1019.3 |
| 20260506143336 | 54 | 359 | 0.0 | 1.7 | 0.00 | 0.00 | 0.00 | 100 | 1019.1 |
| 20260506142836 | 54 | 37 | 0.0 | 0.9 | 0.00 | 0.00 | 0.00 | 100 | 1018.9 |
| 20260506142336 | 54 | 57 | 0.0 | 0.9 | 0.00 | 0.00 | 0.00 | 100 | 1018.7 |
| 20260506141835 | 54 | 58 | 0.0 | 0.9 | 0.00 | 0.00 | 0.00 | 100 | 1018.8 |
| 20260506141336 | 54 | 64 | 0.0 | 1.7 | 0.00 | 0.00 | 0.00 | 100 | 1019.0 |
| 20260506140835 | 54 | 63 | 0.0 | 1.7 | 0.00 | 0.00 | 0.00 | 100 | 1019.0 |
| 20260506140335 | 54 | 82 | 0.0 | 0.9 | 0.00 | 0.00 | 0.00 | 100 | 1019.0 |
| 20260506135834 | 54 | 115 | 0.0 | 0.9 | 0.00 | 0.00 | 0.00 | 100 | 1019.1 |
| 20260506135334 | 54 | 115 | 0.0 | 0.9 | 0.00 | 0.00 | 0.00 | 100 | 1019.0 |
| 20260506134834 | 54 | 299 | 0.0 | 2.6 | 0.00 | 0.00 | 0.00 | 100 | 1018.9 |
| 20260506134335 | 54 | 305 | 0.0 | 2.6 | 0.00 | 0.00 | 0.00 | 100 | 1018.8 |
| 20260506133835 | 54 | 132 | 0.0 | 0.9 | 0.00 | 0.00 | 0.00 | 100 | 1018.9 |
| 20260506133335 | 54 | 131 | 0.0 | 0.9 | 0.00 | 0.00 | 0.00 | 100 | 1018.9 |
| 20260506132836 | 54 | 132 | 0.0 | 1.7 | 0.00 | 0.00 | 0.00 | 100 | 1018.9 |
| 20260506132335 | 54 | 132 | 0.0 | 1.7 | 0.00 | 0.00 | 0.00 | 100 | 1018.9 |
| 20260506131835 | 54 | 10 | 0.0 | 1.7 | 0.00 | 0.00 | 0.00 | 100 | 1019.0 |
| 20260506131557 | 54 | 10 | 0.0 | 1.7 | 0.00 | 0.00 | 0.00 | 100 | 1019.0 |
| 20260506131320 | 54 | 16 | 0.0 | 0.9 | 0.00 | 0.00 | 0.00 | 100 | 1018.8 |
| 20260506130554 | 54 | 65 | 0.0 | 0.9 | 0.00 | 0.00 | 0.00 | 100 | 1018.7 |
| 20260506125832 | 54 | 50 | 0.0 | 0.9 | 0.00 | 0.00 | 0.00 | 100 | 1018.7 |
| 20260506125333 | 55 | 54 | 0.0 | 0.9 | 0.00 | 0.00 | 0.00 | 100 | 1018.7 |
| 20260506124834 | 54 | 39 | 0.0 | 0.9 | 0.00 | 0.00 | 0.00 | 100 | 1018.6 |
| 20260506124812 | 55 | 55 | 0.0 | 0.0 | 0.00 | 0.00 | 0.00 | 100 | 1018.6 |
| 20260506123833 | 55 | 56 | 0.0 | 0.0 | 0.00 | 0.00 | 0.00 | 100 | 1018.5 |
| 20260506123333 | 54 | 57 | 0.0 | 1.7 | 0.00 | 0.00 | 0.00 | 100 | 1018.5 |
| 20260506122832 | 54 | 55 | 0.0 | 1.7 | 0.00 | 0.00 | 0.00 | 100 | 1018.3 |
| 20260506122556 | 54 | 70 | 0.0 | 2.6 | 0.00 | 0.00 | 0.00 | 100 | 1018.2 |
| 20260506121833 | 55 | 114 | 0.0 | 2.6 | 0.00 | 0.00 | 0.00 | 100 | 1018.3 |
| 20260506121558 | 55 | 52 | 0.0 | 0.0 | 0.00 | 0.00 | 0.00 | 100 | 1018.4 |
| 20260506120833 | 55 | 52 | 0.0 | 0.9 | 0.00 | 0.00 | 0.00 | 100 | 1018.4 |
| 20260506120333 | 55 | 52 | 0.0 | 1.7 | 0.00 | 0.00 | 0.00 | 100 | 1018.4 |
| 20260506115833 | 55 | 52 | 0.0 | 1.7 | 0.00 | 0.00 | 0.00 | 100 | 1018.3 |
| 20260506115331 | 55 | 267 | 0.0 | 1.7 | 0.00 | 0.00 | 0.00 | 100 | 1018.2 |
| 20260506114831 | 55 | 359 | 0.0 | 1.7 | 0.00 | 0.00 | 0.00 | 100 | 1018.2 |
| 20260506114331 | 55 | 325 | 0.0 | 1.7 | 0.00 | 0.00 | 0.00 | 100 | 1018.2 |
| 20260506113832 | 55 | 160 | 0.0 | 1.7 | 0.00 | 0.00 | 0.00 | 100 | 1018.0 |
| 20260506113330 | 55 | 102 | 0.0 | 1.7 | 0.00 | 0.00 | 0.00 | 100 | 1018.0 |
| 20260506112830 | 55 | 30 | 0.0 | 3.5 | 0.00 | 0.00 | 0.00 | 100 | 1018.0 |
| 20260506112331 | 55 | 157 | 0.0 | 3.5 | 0.00 | 0.00 | 0.00 | 100 | 1018.0 |
| 20260506111832 | 55 | 31 | 0.0 | 0.9 | 0.00 | 0.00 | 0.00 | 100 | 1018.0 |
| 20260506111330 | 55 | 35 | 0.0 | 1.7 | 0.00 | 0.00 | 0.00 | 100 | 1017.9 |
| 20260506110830 | 55 | 324 | 0.0 | 1.7 | 0.00 | 0.00 | 0.00 | 100 | 1017.9 |
| 20260506110330 | 55 | 31 | 0.0 | 1.7 | 0.00 | 0.00 | 0.00 | 100 | 1017.8 |
| 20260506105830 | 55 | 27 | 0.0 | 2.6 | 0.00 | 0.00 | 0.00 | 100 | 1017.7 |
| 20260506105331 | 55 | 176 | 0.0 | 2.6 | 0.00 | 0.00 | 0.00 | 100 | 1017.7 |
| 20260506104831 | 55 | 328 | 0.0 | 2.6 | 0.00 | 0.00 | 0.00 | 100 | 1017.7 |
| 20260506104552 | 55 | 104 | 0.0 | 2.6 | 0.00 | 0.00 | 0.00 | 100 | 1017.7 |
| 20260506103831 | 55 | 75 | 0.0 | 1.7 | 0.00 | 0.00 | 0.00 | 100 | 1017.6 |
| 20260506103550 | 55 | 76 | 0.0 | 1.7 | 0.00 | 0.00 | 0.00 | 100 | 1017.6 |
| 20260506102831 | 55 | 58 | 0.0 | 0.9 | 0.00 | 0.00 | 0.00 | 100 | 1017.6 |
| 20260506102331 | 55 | 60 | 0.0 | 0.9 | 0.00 | 0.00 | 0.00 | 100 | 1017.6 |
| 20260506101838 | 55 | 59 | 0.0 | 0.9 | 0.00 | 0.00 | 0.00 | 100 | 1017.7 |
| 20260506101329 | 55 | 63 | 0.0 | 0.9 | 0.00 | 0.00 | 0.00 | 100 | 1017.7 |
| 20260506101050 | 55 | 62 | 0.0 | 1.7 | 0.00 | 0.00 | 0.00 | 100 | 1017.8 |
| 20260506100328 | 55 | 82 | 0.0 | 1.7 | 0.00 | 0.00 | 0.00 | 100 | 1017.8 |
| 20260506100047 | 55 | 148 | 0.0 | 0.9 | 0.00 | 0.00 | 0.00 | 100 | 1017.7 |
| 20260506095812 | 55 | 151 | 0.0 | 2.6 | 0.00 | 0.00 | 0.00 | 100 | 1017.6 |
| 20260506094829 | 55 | 34 | 0.0 | 2.6 | 0.00 | 0.00 | 0.00 | 100 | 1017.6 |
| 20260506094329 | 55 | 4 | 0.0 | 0.9 | 0.00 | 0.00 | 0.00 | 100 | 1017.6 |
| 20260506093829 | 55 | 23 | 0.0 | 1.7 | 0.00 | 0.00 | 0.00 | 100 | 1017.5 |
| 20260506093329 | 55 | 308 | 0.0 | 1.7 | 0.00 | 0.00 | 0.00 | 100 | 1017.5 |
| 20260506092828 | 55 | 77 | 0.0 | 0.0 | 0.00 | 0.00 | 0.00 | 100 | 1017.4 |
| 20260506092329 | 55 | 77 | 0.0 | 0.0 | 0.00 | 0.00 | 0.00 | 100 | 1017.4 |
| 20260506091830 | 55 | 77 | 0.0 | 0.0 | 0.00 | 0.00 | 0.00 | 100 | 1017.4 |
| 20260506091549 | 55 | 75 | 0.0 | 0.0 | 0.00 | 0.00 | 0.00 | 100 | 1017.3 |
| 20260506090829 | 55 | 77 | 0.0 | 0.0 | 0.00 | 0.00 | 0.00 | 100 | 1017.3 |
| 20260506090328 | 55 | 78 | 0.0 | 0.0 | 0.00 | 0.00 | 0.00 | 100 | 1017.3 |
| 20260506090046 | 55 | 77 | 0.0 | 0.0 | 0.00 | 0.00 | 0.00 | 100 | 1017.2 |
| 20260506085549 | 55 | 77 | 0.0 | 0.0 | 0.00 | 0.00 | 0.00 | 100 | 1017.2 |
| 20260506084829 | 55 | 77 | 0.0 | 0.0 | 0.00 | 0.00 | 0.00 | 100 | 1017.1 |
| 20260506084548 | 55 | 77 | 0.0 | 0.0 | 0.00 | 0.00 | 0.00 | 100 | 1017.1 |
| 20260506084049 | 55 | 77 | 0.0 | 0.0 | 0.00 | 0.00 | 0.00 | 100 | 1017.1 |
| 20260506083327 | 55 | 77 | 0.0 | 0.0 | 0.00 | 0.00 | 0.00 | 100 | 1017.1 |
| 20260506082827 | 55 | 77 | 0.0 | 0.0 | 0.00 | 0.00 | 0.00 | 100 | 1017.0 |
| 20260506082327 | 56 | 79 | 0.0 | 0.0 | 0.00 | 0.00 | 0.00 | 100 | 1016.9 |
| 20260506081826 | 56 | 72 | 0.0 | 0.0 | 0.00 | 0.00 | 0.00 | 100 | 1016.8 |
| 20260506081548 | 56 | 73 | 0.0 | 0.0 | 0.00 | 0.00 | 0.00 | 100 | 1016.8 |
| 20260506081046 | 56 | 72 | 0.0 | 0.0 | 0.00 | 0.00 | 0.00 | 100 | 1016.7 |
| 20260506080544 | 56 | 101 | 0.0 | 0.0 | 0.00 | 0.00 | 0.00 | 100 | 1016.6 |
| 20260506073327 | 56 | 101 | 0.0 | 0.0 | 0.00 | 0.00 | 0.00 | 100 | 1016.5 |
| 20260506072827 | 56 | 101 | 0.0 | 0.0 | 0.00 | 0.00 | 0.00 | 100 | 1016.5 |
| 20260506072327 | 57 | 100 | 0.0 | 0.0 | 0.00 | 0.00 | 0.00 | 100 | 1016.5 |
| 20260506071827 | 57 | 100 | 0.0 | 0.0 | 0.00 | 0.00 | 0.00 | 100 | 1016.4 |
| 20260506071556 | 57 | 100 | 0.0 | 0.0 | 0.00 | 0.00 | 0.00 | 100 | 1016.4 |
| 20260506070828 | 57 | 101 | 0.0 | 0.0 | 0.00 | 0.00 | 0.00 | 100 | 1016.4 |
| 20260506070327 | 57 | 99 | 0.0 | 0.0 | 0.00 | 0.00 | 0.00 | 100 | 1016.4 |
| 20260506062326 | 58 | 101 | 0.0 | 1.7 | 0.00 | 0.00 | 0.00 | 100 | 1016.1 |
| 20260506062053 | 58 | 101 | 0.0 | 1.7 | 0.00 | 0.00 | 0.00 | 100 | 1016.2 |
| 20260506061544 | 58 | 102 | 0.0 | 0.9 | 0.00 | 0.00 | 0.00 | 100 | 1016.1 |
| 20260506060826 | 58 | 100 | 0.0 | 0.9 | 0.00 | 0.00 | 0.00 | 100 | 1016.1 |
| 20260506060326 | 58 | 101 | 0.0 | 0.9 | 0.00 | 0.00 | 0.00 | 100 | 1016.1 |
| 20260506051326 | 59 | 102 | 0.0 | 0.0 | 0.00 | 0.00 | 0.00 | 100 | 1015.7 |
| 20260506050826 | 60 | 102 | 0.0 | 0.0 | 0.00 | 0.00 | 0.00 | 100 | 1015.5 |
| 20260506050326 | 60 | 101 | 0.0 | 0.0 | 0.00 | 0.00 | 0.00 | 100 | 1015.4 |
| 20260506044824 | 60 | 102 | 0.0 | 0.0 | 0.00 | 0.00 | 0.00 | 100 | 1015.3 |
| 20260506044323 | 60 | 103 | 0.0 | 0.0 | 0.00 | 0.00 | 0.00 | 100 | 1015.3 |
| 20260506043824 | 60 | 102 | 0.0 | 0.0 | 0.00 | 0.00 | 0.00 | 100 | 1015.2 |
| 20260506043817 | 60 | 101 | 0.0 | 0.0 | 0.00 | 0.00 | 0.00 | 100 | 1015.1 |
| 20260506042820 | 60 | 102 | 0.0 | 0.0 | 0.00 | 0.00 | 0.00 | 100 | 1015.1 |
| 20260506042539 | 60 | 101 | 0.0 | 0.0 | 0.00 | 0.00 | 0.00 | 100 | 1015.0 |
| 20260506041821 | 61 | 102 | 0.0 | 0.0 | 0.00 | 0.00 | 0.00 | 100 | 1015.0 |
| 20260506041321 | 61 | 100 | 0.0 | 0.0 | 0.00 | 0.00 | 0.00 | 100 | 1015.0 |